Погода в Русском Лундане

Россия / Республика Мордовия     53°50′03″N   42°53′28″E
темп.,
°C
ветер,
м/с
пор.,
м/с
влажн.,
%
обл.,
%
осадки,
мм/ч
давл.,
гПа
погр.,
м
16 сентября, чт
чт1600:00+8зсз4773100 0.0 1013603
03:00+6зсз488114 0.0 1013357
06:00+7сз4976100 0.0 1014587
09:00+9сз686999 0.0 10141047
12:00+7сз5784100 0.1 1016615
15:00+11ссз576187 0.3 10161320
18:00+9ссз477048 0.1 1017692
21:00+8сз2672100 0.1 1018306
17 сентября, пт
пт1700:00+8ссз2668100 0.0 1018326
03:00+7сз2465100 0.0 1019192
06:00+7сз2365100 0.0 1018167
09:00+7ссз3460100 0.0 1019591
12:00+9сз3450100 0.0 10191311
15:00+10ссз4445100 0.0 10181538
18:00+9с3547100 0.0 1019458
21:00+7с3555100 0.0 1019225
18 сентября, сб
сб1800:00+6с36685 0.0 1021149
03:00+3ссв35793 0.0 102283
06:00+1ссв34780 0.0 102363
09:00+7ссв34510 0.0 1023547
12:00+11ссв33425 0.0 10231316
15:00+12ссв33385 0.0 10221549
18:00+9св34515 0.0 102369
21:00+5всв3868100 0.0 1024175
19 сентября, вс
вс1900:00+4в3670100 0.0 1025116
03:00+4в3669100 0.0 1025140
06:00+3в3773100 0.0 1025166
09:00+7вюв4654100 0.0 1025518
12:00+10вюв5544100 0.0 10241018
15:00+12вюв5641100 0.0 10221206
18:00+10в5846100 0.0 1021487
21:00+8в61067100 0.5 1021601
20 сентября, пн
пн2000:00+6в81589100 5.3 1019666
03:00+6вюв91792100 11.5 1017703
06:00+6вюв81592100 3.2 1016750
09:00+7вюв81494100 7.5 1016688
12:00+7вюв71394100 3.1 1016660
15:00+7вюв71293100 4.0 1016644
18:00+7вюв81390100 0.1 1016590
21:00+7вюв81489100 0.1 1016613